Find Starlink 31740

NORAD ID: 59433 Int'l Des: 2024-065 Owner: SPXS Country: US Constellation: starlink operational
LEOCIRCULAR

現在のビュー

3D地球を読み込み中...

About Starlink 31740

Starlink 31740 (NORAD 59433) is a starlink constellation satellite (v2 mini) launched Apr 7, 2024 by SPXS of US. It operates in LEO, CIRCULAR orbit with a mass of 730.00 kg.

次回通過

Passes for default location (London). Set your location on the main map for personalized predictions.

高度履歴

Loading altitude history...

軌道要素

1 59433U 24065N 26254.95088936 .00000843 00000-0 36084-4 0 9998
2 59433 53.1606 137.4512 0001226 102.4627 257.6513 15.34394594137437
Epoch: Sep 11, 2026 • Age: 10 hours

現在のステータス

高度 468.1 km
遠地点 / 近地点 N/A
速度 7.64 km/s
衛星直下点 51.18°N, 84.01°E
打ち上げ日 Apr 7, 2024
運用期間 2.4 years
タイプ internet

技術仕様

分類 Payload
質量 730.00 kg
乾燥質量 700.00 kg
総質量 730.00 kg
長さ 0.30 m
直径 4.10 m
スパン 29.00 m
形状 Box + pan
製造者 SPXS
バスタイプ Starlink V2M
フェーズステータス In Orbit
所有者/国 SPXS/US

Most Searched